TimeMDT,TemperatureF,Dew PointF,Humidity,Sea Level PressureIn,VisibilityMPH,Wind Direction,Wind SpeedMPH,Gust SpeedMPH,PrecipitationIn,Events,Conditions,WindDirDegrees,DateUTC
12:48 AM,17.6,15.8,93,29.97,0.5,North,21.9,34.5,N/A,Fog,Light Freezing Fog,360,2013-04-09 06:48:00
12:53 AM,17.1,15.1,92,30.05,0.5,North,27.6,34.5,N/A,Fog,Light Freezing Fog,10,2013-04-09 06:53:00
1:53 AM,17.1,15.1,92,30.08,0.5,NNW,12.7,20.7,0.07,Fog,Light Freezing Fog,340,2013-04-09 07:53:00
2:53 AM,17.1,15.1,92,30.08,0.5,North,20.7,-,0.04,Fog,Light Freezing Fog,360,2013-04-09 08:53:00
3:26 AM,17.6,15.8,93,30.04,1.0,NNW,15.0,19.6,N/A,,Mist,330,2013-04-09 09:26:00
3:36 AM,17.6,15.8,93,30.02,0.8,NNW,11.5,25.3,N/A,,Mist,340,2013-04-09 09:36:00
3:53 AM,17.1,15.1,92,30.10,1.0,NNW,13.8,-,N/A,,Mist,330,2013-04-09 09:53:00
4:29 AM,17.6,12.2,79,30.04,1.5,NNW,13.8,24.2,N/A,,Overcast,340,2013-04-09 10:29:00
4:40 AM,15.8,12.2,86,30.03,0.8,NNW,19.6,26.5,N/A,,Mist,340,2013-04-09 10:40:00
4:53 AM,16.0,12.9,88,30.09,0.8,NNW,16.1,26.5,N/A,,Mist,340,2013-04-09 10:53:00
5:03 AM,15.8,12.2,86,30.05,1.2,NNW,13.8,24.2,N/A,,Overcast,340,2013-04-09 11:03:00
5:20 AM,15.8,12.2,86,30.06,2.0,North,17.3,24.2,N/A,,Overcast,350,2013-04-09 11:20:00
5:51 AM,15.8,12.2,86,30.09,1.8,North,17.3,-,N/A,,Overcast,360,2013-04-09 11:51:00
5:53 AM,15.1,12.0,88,30.14,1.5,North,15.0,-,N/A,,Overcast,360,2013-04-09 11:53:00
6:13 AM,15.8,12.2,86,30.11,2.5,North,9.2,-,N/A,,Overcast,360,2013-04-09 12:13:00
6:20 AM,15.8,12.2,86,30.12,2.5,NNW,5.8,-,N/A,,Overcast,340,2013-04-09 12:20:00
6:38 AM,15.8,10.4,79,30.12,1.5,North,12.7,17.3,0.00,Snow,Light Snow,350,2013-04-09 12:38:00
6:48 AM,14.0,10.4,86,30.10,1.0,North,19.6,-,0.01,Snow,Light Snow,360,2013-04-09 12:48:00
6:50 AM,14.0,10.4,86,30.10,0.8,North,19.6,-,0.01,Snow,Light Snow,360,2013-04-09 12:50:00
6:53 AM,14.0,10.9,88,30.16,0.5,North,20.7,-,0.01,Fog,Light Freezing Fog,360,2013-04-09 12:53:00
7:12 AM,14.0,10.4,86,30.11,0.5,North,16.1,-,0.01,Fog,Light Freezing Fog,350,2013-04-09 13:12:00
7:27 AM,14.0,10.4,86,30.11,0.8,NNW,12.7,23.0,0.01,,Mist,340,2013-04-09 13:27:00
7:51 AM,14.0,10.4,86,30.12,1.0,NNW,11.5,24.2,0.02,,Mist,340,2013-04-09 13:51:00
7:52 AM,14.0,10.9,88,30.19,1.0,NNW,11.5,24.2,0.02,,Mist,340,2013-04-09 13:52:00
8:05 AM,14.0,10.4,86,30.13,2.0,NNW,12.7,21.9,N/A,,Overcast,340,2013-04-09 14:05:00
8:40 AM,14.0,10.4,86,30.13,2.5,NNW,12.7,20.7,N/A,,Overcast,340,2013-04-09 14:40:00
8:46 AM,14.0,8.6,79,30.14,4.0,NNW,12.7,-,N/A,,Haze,340,2013-04-09 14:46:00
8:53 AM,14.0,9.0,80,30.22,6.0,NNW,12.7,21.9,N/A,,Haze,340,2013-04-09 14:53:00
9:05 AM,14.0,8.6,79,30.16,7.0,NNW,9.2,18.4,N/A,,Overcast,340,2013-04-09 15:05:00
9:49 AM,14.0,8.6,79,30.15,2.5,North,20.7,-,N/A,,Haze,360,2013-04-09 15:49:00
9:53 AM,14.0,9.0,80,30.25,2.0,North,20.7,-,N/A,,Haze,360,2013-04-09 15:53:00
10:02 AM,14.0,10.4,86,30.15,1.2,NNW,11.5,21.9,N/A,,Overcast,340,2013-04-09 16:02:00
10:17 AM,14.0,8.6,79,30.16,2.5,NNW,12.7,23.0,N/A,,Haze,340,2013-04-09 16:17:00
10:19 AM,14.0,8.6,79,30.16,3.0,NNW,11.5,23.0,N/A,,Haze,340,2013-04-09 16:19:00
10:24 AM,14.0,8.6,79,30.16,1.8,NNW,15.0,21.9,0.01,,Haze,340,2013-04-09 16:24:00
10:35 AM,14.0,8.6,79,30.16,0.5,North,18.4,24.2,0.01,,Haze,350,2013-04-09 16:35:00
10:53 AM,14.0,9.0,80,30.27,1.2,North,20.7,25.3,0.01,,Haze,350,2013-04-09 16:53:00
11:09 AM,14.0,8.6,79,30.15,1.8,North,20.7,28.8,0.00,Snow,Light Snow,350,2013-04-09 17:09:00
11:17 AM,15.8,8.6,73,30.16,2.5,North,15.0,23.0,0.00,Snow,Light Snow,350,2013-04-09 17:17:00
11:36 AM,15.8,8.6,73,30.17,4.0,North,17.3,24.2,0.00,Snow,Light Snow,350,2013-04-09 17:36:00
11:53 AM,15.1,9.0,77,30.28,6.0,NNW,13.8,-,0.00,,Overcast,340,2013-04-09 17:53:00
12:26 PM,14.0,8.6,79,30.13,1.2,NNW,18.4,27.6,0.00,,Overcast,340,2013-04-09 18:26:00
12:45 PM,14.0,8.6,79,30.15,0.8,NNW,16.1,26.5,0.00,Snow,Light Snow,340,2013-04-09 18:45:00
12:51 PM,14.0,8.6,79,30.15,1.0,NNW,19.6,24.2,0.00,Snow,Light Snow,330,2013-04-09 18:51:00
12:53 PM,14.0,8.1,77,30.32,1.0,NNW,18.4,25.3,0.00,Snow,Light Snow,340,2013-04-09 18:53:00
1:03 PM,14.0,8.6,79,30.13,0.5,NNW,16.1,23.0,0.00,Snow,Snow,340,2013-04-09 19:03:00
1:17 PM,14.0,8.6,79,30.16,0.2,NNW,17.3,-,0.00,Snow,Heavy Snow,340,2013-04-09 19:17:00
1:50 PM,14.0,10.4,86,30.15,0.8,NNW,17.3,23.0,0.00,Snow,Light Snow,330,2013-04-09 19:50:00
1:53 PM,15.1,10.0,80,30.33,1.0,NNW,17.3,-,0.00,Snow,Light Snow,330,2013-04-09 19:53:00
2:03 PM,15.8,10.4,79,30.15,0.8,NNW,18.4,-,0.00,Snow,Light Snow,330,2013-04-09 20:03:00
2:53 PM,15.1,10.0,80,30.34,1.0,NNW,17.3,26.5,0.00,Snow,Light Snow,330,2013-04-09 20:53:00
3:21 PM,15.8,10.4,79,30.16,1.8,NNW,19.6,-,0.00,,Overcast,340,2013-04-09 21:21:00
3:28 PM,15.8,10.4,79,30.16,2.0,NNW,17.3,25.3,0.00,,Overcast,330,2013-04-09 21:28:00
3:40 PM,15.8,10.4,79,30.16,3.0,NNW,18.4,-,0.00,,Overcast,330,2013-04-09 21:40:00
3:53 PM,15.1,10.0,80,30.34,3.0,NNW,13.8,23.0,0.00,Snow,Light Snow,340,2013-04-09 21:53:00
4:00 PM,15.8,10.4,79,30.16,1.8,NNW,12.7,21.9,0.00,Snow,Light Snow,340,2013-04-09 22:00:00
4:13 PM,15.8,10.4,79,30.17,1.5,NNW,15.0,21.9,0.00,Snow,Light Snow,340,2013-04-09 22:13:00
4:53 PM,15.1,9.0,77,30.35,1.8,NNW,15.0,24.2,0.00,,Overcast,340,2013-04-09 22:53:00
5:00 PM,15.8,10.4,79,30.16,2.5,NNW,15.0,24.2,0.00,,Overcast,340,2013-04-09 23:00:00
5:09 PM,15.8,10.4,79,30.17,4.0,NNW,13.8,23.0,0.00,,Overcast,340,2013-04-09 23:09:00
5:36 PM,14.0,8.6,79,30.18,3.0,NNW,15.0,23.0,0.00,Snow,Light Snow,340,2013-04-09 23:36:00
5:45 PM,14.0,8.6,79,30.19,2.0,NNW,10.4,21.9,0.00,Snow,Light Snow,340,2013-04-09 23:45:00
5:53 PM,14.0,9.0,80,30.38,3.0,North,13.8,20.7,0.00,Snow,Light Snow,350,2013-04-09 23:53:00
6:16 PM,14.0,8.6,79,30.20,2.5,NNW,12.7,24.2,0.00,Snow,Light Snow,340,2013-04-10 00:16:00
6:22 PM,14.0,8.6,79,30.20,0.8,NNW,15.0,24.2,0.00,Snow,Light Snow,340,2013-04-10 00:22:00
6:33 PM,14.0,10.4,86,30.21,0.2,NNW,12.7,19.6,0.00,Fog-Snow,Heavy Snow,340,2013-04-10 00:33:00
6:40 PM,12.2,10.4,92,30.20,0.2,NNW,15.0,20.7,0.01,Fog-Snow,Heavy Snow,340,2013-04-10 00:40:00
6:50 PM,12.2,10.4,92,30.20,0.2,NNW,12.7,21.9,0.01,Fog-Snow,Heavy Snow,340,2013-04-10 00:50:00
6:53 PM,12.9,10.0,88,30.40,0.2,NNW,13.8,-,0.04,Fog-Snow,Heavy Snow,340,2013-04-10 00:53:00
7:14 PM,12.2,10.4,92,30.19,0.8,NNW,17.3,23.0,0.00,Snow,Blowing Snow,340,2013-04-10 01:14:00
7:24 PM,12.2,10.4,92,30.19,1.0,NNW,15.0,23.0,0.00,Snow,Blowing Snow,340,2013-04-10 01:24:00
7:40 PM,12.2,10.4,92,30.21,1.5,NNW,11.5,-,0.00,Snow,Light Snow,340,2013-04-10 01:40:00
7:46 PM,12.2,10.4,92,30.22,2.0,NNW,13.8,-,0.00,Snow,Light Snow,340,2013-04-10 01:46:00
7:53 PM,12.9,10.0,88,30.40,3.0,NNW,11.5,-,0.00,Snow,Light Snow,330,2013-04-10 01:53:00
8:19 PM,12.2,8.6,85,30.21,2.5,NNW,12.7,19.6,0.00,Snow,Light Snow,340,2013-04-10 02:19:00
8:31 PM,14.0,10.4,86,30.21,1.5,NNW,11.5,21.9,0.00,Snow,Light Snow,340,2013-04-10 02:31:00
8:53 PM,12.9,9.0,84,30.39,1.8,NNW,13.8,21.9,0.00,Snow,Light Snow,340,2013-04-10 02:53:00
9:09 PM,12.2,10.4,92,30.21,2.5,NNW,13.8,20.7,0.00,Snow,Light Snow,340,2013-04-10 03:09:00
9:23 PM,14.0,10.4,86,30.21,3.0,NNW,15.0,-,0.00,Snow,Light Snow,330,2013-04-10 03:23:00
9:53 PM,14.0,9.0,80,30.41,10.0,NNW,13.8,-,0.00,,Overcast,330,2013-04-10 03:53:00
10:53 PM,14.0,10.0,84,30.39,2.0,NNW,15.0,-,0.00,Snow,Light Snow,340,2013-04-10 04:53:00
11:01 PM,14.0,10.4,86,30.20,1.5,NNW,13.8,-,0.00,Snow,Light Snow,330,2013-04-10 05:01:00
11:17 PM,14.0,10.4,86,30.20,2.0,NNW,12.7,-,0.00,Snow,Light Snow,330,2013-04-10 05:17:00
11:27 PM,14.0,10.4,86,30.19,3.0,NNW,11.5,-,0.00,Snow,Light Snow,330,2013-04-10 05:27:00
11:53 PM,14.0,10.0,84,30.38,4.0,NNW,12.7,-,0.00,Snow,Light Snow,330,2013-04-10 05:53:00